DMC3-FM2

Last updated on Wed Oct 22 2025 00:02:36 GMT+0000 (Coordinated Universal Time)

1 40716U 15032B 25294.65190624 .00001314 00000+0 15894-3 0 9992 2 40716 97.6813 165.1374 0007489 117.5454 242.6523 14.85296469554491
UTC large
Height (km)
Speed (km/s)
/
Latitude / Longitude
Inclination (degrees)
Orbital Period (minutes)
Azimuth
Elevation
Range (km)
Doppler Factor

Next 0 passes for location: London (51.5072 / 0.1276)

Sorry there are no passes over London.